TimeMST,TemperatureF,Dew PointF,Humidity,Sea Level PressureIn,VisibilityMPH,Wind Direction,Wind SpeedMPH,Gust SpeedMPH,PrecipitationIn,Events,Conditions,WindDirDegrees,DateUTC
12:15 AM,80.6,39.2,23,29.93,10.0,Calm,Calm,-,N/A,,Clear,0,2013-08-11 07:15:00
12:35 AM,78.8,39.2,24,29.93,10.0,NE,4.6,-,N/A,,Clear,50,2013-08-11 07:35:00
12:55 AM,78.8,39.2,24,29.94,10.0,East,3.5,-,N/A,,Clear,80,2013-08-11 07:55:00
1:15 AM,82.4,39.2,21,29.94,10.0,SE,4.6,-,N/A,,Clear,130,2013-08-11 08:15:00
1:35 AM,80.6,39.2,23,29.94,9.0,ESE,8.1,-,N/A,,Clear,110,2013-08-11 08:35:00
1:55 AM,78.8,41.0,26,29.95,10.0,NNE,4.6,-,N/A,,Clear,30,2013-08-11 08:55:00
2:15 AM,75.2,41.0,29,29.95,10.0,North,5.8,-,N/A,,Clear,10,2013-08-11 09:15:00
2:35 AM,75.2,41.0,29,29.95,10.0,NNE,3.5,-,N/A,,Clear,30,2013-08-11 09:35:00
2:55 AM,77.0,39.2,26,29.95,10.0,NE,5.8,-,N/A,,Clear,40,2013-08-11 09:55:00
3:15 AM,73.4,39.2,29,29.95,10.0,NNE,3.5,-,N/A,,Clear,30,2013-08-11 10:15:00
3:35 AM,75.2,39.2,27,29.95,10.0,NNE,3.5,-,N/A,,Clear,30,2013-08-11 10:35:00
3:55 AM,73.4,39.2,29,29.95,10.0,NE,3.5,-,N/A,,Clear,40,2013-08-11 10:55:00
4:15 AM,71.6,39.2,31,29.95,10.0,ENE,3.5,-,N/A,,Clear,60,2013-08-11 11:15:00
4:35 AM,73.4,39.2,29,29.95,10.0,Calm,Calm,-,N/A,,Clear,0,2013-08-11 11:35:00
4:55 AM,71.6,39.2,31,29.95,10.0,NE,3.5,-,N/A,,Clear,40,2013-08-11 11:55:00
5:15 AM,71.6,39.2,31,29.95,10.0,NE,4.6,-,N/A,,Clear,50,2013-08-11 12:15:00
5:35 AM,71.6,39.2,31,29.95,10.0,Calm,Calm,-,N/A,,Clear,0,2013-08-11 12:35:00
5:55 AM,71.6,37.4,29,29.96,10.0,NE,5.8,-,N/A,,Clear,50,2013-08-11 12:55:00
6:15 AM,71.6,37.4,29,29.96,10.0,NE,5.8,-,N/A,,Clear,50,2013-08-11 13:15:00
6:35 AM,71.6,37.4,29,29.97,10.0,NE,4.6,-,N/A,,Clear,40,2013-08-11 13:35:00
6:55 AM,73.4,39.2,29,29.97,10.0,Calm,Calm,-,N/A,,Clear,0,2013-08-11 13:55:00
7:15 AM,78.8,39.2,24,29.97,10.0,North,4.6,-,N/A,,Clear,350,2013-08-11 14:15:00
7:35 AM,82.4,37.4,20,29.97,10.0,Calm,Calm,-,N/A,,Clear,0,2013-08-11 14:35:00
7:55 AM,84.2,37.4,19,29.97,10.0,Calm,Calm,-,N/A,,Clear,0,2013-08-11 14:55:00
8:15 AM,84.2,39.2,20,29.97,10.0,SSE,6.9,-,N/A,,Clear,150,2013-08-11 15:15:00
8:35 AM,84.2,42.8,23,29.97,10.0,SSE,5.8,-,N/A,,Clear,150,2013-08-11 15:35:00
8:55 AM,84.2,44.6,25,29.97,10.0,ESE,4.6,-,N/A,,Clear,120,2013-08-11 15:55:00
9:15 AM,87.8,46.4,24,29.97,10.0,SE,4.6,-,N/A,,Clear,130,2013-08-11 16:15:00
9:35 AM,89.6,44.6,21,29.97,10.0,Calm,Calm,-,N/A,,Clear,0,2013-08-11 16:35:00
9:55 AM,91.4,46.4,21,29.97,10.0,South,3.5,-,N/A,,Clear,170,2013-08-11 16:55:00
10:15 AM,91.4,48.2,23,29.96,10.0,Calm,Calm,-,N/A,,Clear,0,2013-08-11 17:15:00
10:35 AM,93.2,53.6,26,29.95,10.0,ESE,6.9,-,N/A,,Clear,120,2013-08-11 17:35:00
10:55 AM,93.2,53.6,26,29.95,10.0,ESE,8.1,-,N/A,,Clear,120,2013-08-11 17:55:00
11:15 AM,95.0,53.6,25,29.94,10.0,ESE,5.8,-,N/A,,Clear,110,2013-08-11 18:15:00
11:35 AM,96.8,51.8,22,29.93,10.0,Calm,Calm,-,N/A,,Clear,0,2013-08-11 18:35:00
11:55 AM,96.8,48.2,19,29.93,10.0,East,5.8,-,N/A,,Clear,80,2013-08-11 18:55:00
12:15 PM,98.6,48.2,18,29.92,10.0,NW,4.6,-,N/A,,Clear,320,2013-08-11 19:15:00
12:35 PM,98.6,48.2,18,29.91,10.0,ENE,4.6,-,N/A,,Clear,70,2013-08-11 19:35:00
12:55 PM,98.6,46.4,17,29.91,10.0,Calm,Calm,-,N/A,,Clear,0,2013-08-11 19:55:00
1:15 PM,100.4,46.4,16,29.90,10.0,NW,5.8,-,N/A,,Clear,310,2013-08-11 20:15:00
1:35 PM,100.4,44.6,15,29.89,10.0,East,6.9,-,N/A,,Clear,100,2013-08-11 20:35:00
1:55 PM,100.4,44.6,15,29.88,10.0,South,4.6,-,N/A,,Clear,180,2013-08-11 20:55:00
2:15 PM,102.2,44.6,14,29.87,10.0,Calm,Calm,-,N/A,,Clear,0,2013-08-11 21:15:00
2:35 PM,100.4,44.6,15,29.86,10.0,Calm,Calm,-,N/A,,Clear,0,2013-08-11 21:35:00
2:55 PM,100.4,46.4,16,29.85,10.0,SSW,3.5,-,N/A,,Clear,200,2013-08-11 21:55:00
3:15 PM,102.2,44.6,14,29.84,10.0,West,8.1,-,N/A,,Clear,280,2013-08-11 22:15:00
3:35 PM,102.2,44.6,14,29.84,10.0,SW,9.2,-,N/A,,Clear,230,2013-08-11 22:35:00
3:55 PM,104.0,46.4,14,29.83,10.0,WSW,10.4,-,N/A,,Clear,240,2013-08-11 22:55:00
4:15 PM,102.2,46.4,15,29.82,10.0,West,4.6,-,N/A,,Clear,280,2013-08-11 23:15:00
4:35 PM,102.2,46.4,15,29.82,10.0,Calm,Calm,-,N/A,,Clear,0,2013-08-11 23:35:00
4:55 PM,102.2,44.6,14,29.81,10.0,Calm,Calm,-,N/A,,Clear,0,2013-08-11 23:55:00
5:15 PM,102.2,46.4,15,29.80,10.0,Calm,Calm,-,N/A,,Clear,0,2013-08-12 00:15:00
5:35 PM,102.2,44.6,14,29.79,10.0,North,6.9,-,N/A,,Clear,360,2013-08-12 00:35:00
5:55 PM,102.2,44.6,14,29.79,10.0,NNW,4.6,-,N/A,,Clear,340,2013-08-12 00:55:00
6:15 PM,100.4,44.6,15,29.79,10.0,East,5.8,-,N/A,,Clear,90,2013-08-12 01:15:00
6:35 PM,102.2,44.6,14,29.79,10.0,Calm,Calm,-,N/A,,Clear,0,2013-08-12 01:35:00
6:55 PM,102.2,42.8,13,29.79,10.0,Calm,Calm,-,N/A,,Clear,0,2013-08-12 01:55:00
7:15 PM,100.4,42.8,14,29.80,10.0,WNW,5.8,-,N/A,,Clear,290,2013-08-12 02:15:00
7:35 PM,98.6,41.0,14,29.80,10.0,WNW,6.9,-,N/A,,Clear,290,2013-08-12 02:35:00
7:55 PM,96.8,41.0,15,29.81,10.0,WNW,10.4,17.3,N/A,,Clear,300,2013-08-12 02:55:00
8:15 PM,96.8,42.8,16,29.82,10.0,NW,10.4,-,N/A,,Clear,310,2013-08-12 03:15:00
8:35 PM,96.8,42.8,16,29.82,10.0,WNW,9.2,-,N/A,,Clear,300,2013-08-12 03:35:00
8:55 PM,93.2,42.8,17,29.83,10.0,WNW,6.9,-,N/A,,Clear,290,2013-08-12 03:55:00
9:15 PM,93.2,39.2,15,29.84,10.0,WNW,8.1,-,N/A,,Clear,290,2013-08-12 04:15:00
9:35 PM,91.4,35.6,14,29.84,10.0,West,5.8,-,N/A,,Clear,280,2013-08-12 04:35:00
9:55 PM,91.4,35.6,14,29.85,10.0,West,5.8,-,N/A,,Clear,280,2013-08-12 04:55:00
10:15 PM,89.6,33.8,14,29.86,10.0,ENE,4.6,-,N/A,,Clear,60,2013-08-12 05:15:00
10:35 PM,91.4,37.4,15,29.86,10.0,NNE,8.1,-,N/A,,Clear,30,2013-08-12 05:35:00
10:55 PM,89.6,37.4,16,29.87,10.0,NNE,6.9,-,N/A,,Clear,30,2013-08-12 05:55:00
11:15 PM,87.8,41.0,19,29.87,10.0,North,3.5,-,N/A,,Clear,360,2013-08-12 06:15:00
11:35 PM,86.0,46.4,25,29.87,10.0,Calm,Calm,-,N/A,,Clear,0,2013-08-12 06:35:00
11:55 PM,87.8,50.0,27,29.87,10.0,Calm,Calm,-,N/A,,Clear,0,2013-08-12 06:55:00